Youngstown, OH

3:27 AM EST on December 11, 2019 (GMT -0500)
Youngstown-Warren Regional

Weather History for KYNG - November, 2019

Change the Weather History Date:

Sunday, November 17, 2019

  Actual Average Record
Temperature  
Mean Temperature 35 °F 41 °F  
Max Temperature 46 °F 48 °F 72 °F (1931)
Min Temperature 24 °F 34 °F 10 °F (1933)
Degree Days  
Heating Degree Days 30 24  
Month to date heating degree days 510 360  
Since 1 July heating degree days 879 981  
Cooling Degree Days 0 0  
Month to date cooling degree days 0 0  
Year to date cooling degree days 792 544  
Moisture  
Dew Point 18 °F    
Average Humidity 53    
Maximum Humidity 79    
Minimum Humidity 41    
Precipitation  
Precipitation 0.00 in 0.11 in 1.32 in (1993)
Month to date precipitation 1.13 1.76  
Year to date precipitation 44.96 34.50  
Snow  
Snow 0.00 in 0.10 in - ()
Month to date snowfall 8.3 1.2  
Since 1 July snowfall 8.3 2.0  
Since 1 September snowfall 8.3 2.0  
Snow Depth 0.00 in    
Sea Level Pressure  
Sea Level Pressure 30.10 in    
Wind  
Wind Speed 8 mph ()    
Max Wind Speed 15 mph    
Max Gust Speed 21 mph    
Visibility 10.0 miles    
Events      
T = Trace of Precipitation, MM = Missing Value Source: Averaged Metar Reports

Daily Weather History Graph

Daily Weather History Graph

Search for Another Location

Airport or City:

Astronomy

Nov. 17, 2019 Rise Set
Actual Time 7:12 AM EST 5:01 PM EST
Civil Twilight 6:43 AM EST 5:31 PM EST
Nautical Twilight 6:09 AM EST 6:05 PM EST
Astronomical Twilight 5:36 AM EST 6:37 PM EST
Moon 9:36 PM EST (11/17) 11:58 AM EST (11/17)
Length of Visible Light 10h 48m
Length of Day
9h 49m
Waning Gibbous, 73% of the Moon is Illuminated
Nov 17
Waning Gibbous
Nov 19
Last Quarter
Nov 26
New
Dec 4
First Quarter
Dec 12
Full

Hourly Weather History & Observations

Time (EST) Temp. Windchill Dew Point Humidity Pressure Visibility Wind Dir Wind Speed Gust Speed Precip Events Conditions
12:51 AM 28.9 °F 19.8 °F 8.1 °F 41% 30.26 in 10.0 mi ESE 10.4 mph - N/A   Partly Cloudy
1:51 AM 28.9 °F 20.4 °F 8.1 °F 41% 30.25 in 10.0 mi ESE 9.2 mph - N/A   Partly Cloudy
2:51 AM 28.0 °F 18.6 °F 8.1 °F 43% 30.25 in 10.0 mi ESE 10.4 mph - N/A   Partly Cloudy
3:51 AM 27.0 °F 18.0 °F 8.1 °F 45% 30.23 in 10.0 mi ESE 9.2 mph - N/A   Partly Cloudy
4:51 AM 27.0 °F 17.3 °F 8.1 °F 45% 30.22 in 10.0 mi ESE 10.4 mph - N/A   Partly Cloudy
5:51 AM 27.0 °F 17.3 °F 8.1 °F 45% 30.22 in 10.0 mi ESE 10.4 mph - N/A   Clear
6:51 AM 25.0 °F 17.1 °F 8.1 °F 49% 30.22 in 10.0 mi ESE 6.9 mph - N/A   Clear
7:51 AM 27.0 °F 18.7 °F 10.0 °F 49% 30.21 in 10.0 mi ESE 8.1 mph - N/A   Partly Cloudy
8:51 AM 30.9 °F 22.2 °F 14.0 °F 50% 30.20 in 10.0 mi ESE 10.4 mph - N/A   Partly Cloudy
9:51 AM 35.1 °F 26.9 °F 19.0 °F 52% 30.17 in 10.0 mi SE 11.5 mph - N/A   Partly Cloudy
10:51 AM 37.9 °F 31.5 °F 19.9 °F 48% 30.16 in 10.0 mi SE 9.2 mph - N/A   Partly Cloudy
11:51 AM 41.0 °F 35.8 °F 21.9 °F 47% 30.12 in 10.0 mi SE 8.1 mph - N/A   Scattered Clouds
12:51 PM 43.0 °F 37.2 °F 23.0 °F 45% 30.09 in 10.0 mi South 10.4 mph - N/A   Scattered Clouds
1:51 PM 45.0 °F 39.7 °F 24.1 °F 44% 30.05 in 10.0 mi SE 10.4 mph - N/A   Mostly Cloudy
2:51 PM 46.0 °F 41.4 °F 24.1 °F 42% 30.04 in 10.0 mi South 9.2 mph - N/A   Mostly Cloudy
3:51 PM 45.0 °F 40.6 °F 24.1 °F 44% 30.02 in 10.0 mi SE 8.1 mph - N/A   Mostly Cloudy
4:51 PM 41.0 °F 37.1 °F 25.0 °F 53% 30.01 in 10.0 mi ESE 5.8 mph - N/A   Mostly Cloudy
5:51 PM 37.9 °F 33.5 °F 24.1 °F 57% 30.02 in 10.0 mi ESE 5.8 mph - N/A   Mostly Cloudy
6:51 PM 36.0 °F 29.0 °F 25.0 °F 64% 30.01 in 10.0 mi ESE 9.2 mph - N/A   Mostly Cloudy
7:51 PM 37.0 °F 29.3 °F 26.1 °F 65% 29.98 in 10.0 mi ESE 11.5 mph - N/A   Mostly Cloudy
8:51 PM 36.0 °F 28.0 °F 26.1 °F 67% 29.96 in 10.0 mi ESE 11.5 mph - N/A   Mostly Cloudy
9:51 PM 36.0 °F 28.5 °F 27.0 °F 70% 29.93 in 10.0 mi ESE 10.4 mph - N/A   Mostly Cloudy
10:51 PM 34.0 °F 26.6 °F 27.0 °F 75% 29.92 in 10.0 mi ESE 9.2 mph - N/A   Mostly Cloudy
11:51 PM 32.0 °F 26.4 °F 26.1 °F 79% 29.91 in 10.0 mi ESE 5.8 mph - N/A   Mostly Cloudy